This is the latest recevied weather packets stored in our database for station/object IR3AS. If no packets are shown the sender has not sent any weather packets the latest 10 day(s).
| Time | Temp. | Humidity | Pressure | Rain* | Wind** | Luminosity | Snow |
|---|---|---|---|---|---|---|---|
| 1788094792 | 20.56° C | 56% | 868.2 hPa | 0 mm | - | - | - |
| 1788094494 | 20.56° C | 55% | 868.6 hPa | 0 mm | - | - | - |
| 1788094192 | 21.11° C | 54% | 868.5 hPa | 0 mm | - | - | - |
| 1788093924 | 21.67° C | 53% | 868.3 hPa | 0 mm | - | - | - |
| 1788093892 | 21.67° C | 53% | 868.3 hPa | 0 mm | - | - | - |
| 1788093592 | 21.67° C | 54% | 868.6 hPa | 0 mm | - | - | - |
| 1788093292 | 21.67° C | 54% | 868.5 hPa | 0 mm | - | - | - |
| 1788092992 | 22.22° C | 53% | 868.7 hPa | 0 mm | - | - | - |
| 1788092693 | 21.67° C | 56% | 868.2 hPa | 0 mm | - | - | - |
| 1788092394 | 21.11° C | 59% | 868.3 hPa | 0 mm | - | - | - |
| 1788092092 | 21.67° C | 61% | 868.6 hPa | 0 mm | - | - | - |
| 1788091792 | 21.11° C | 63% | 868.7 hPa | 0 mm | - | - | - |
| 1788091492 | 20° C | 66% | 868.4 hPa | 0 mm | - | - | - |
| 1788091192 | 17.78° C | 66% | 868.4 hPa | 0 mm | - | - | - |
| 1788090893 | 18.33° C | 66% | 868.5 hPa | 0 mm | - | - | - |
| 1788090592 | 18.33° C | 67% | 868.4 hPa | 0 mm | - | - | - |
| 1788090292 | 18.33° C | 69% | 868.4 hPa | 0 mm | - | - | - |
| 1788090047 | 17.78° C | 71% | 868.3 hPa | 0 mm | - | - | - |
| 1788089992 | 17.78° C | 71% | 868.3 hPa | 0 mm | - | - | - |
| 1788089694 | 17.22° C | 71% | 868.3 hPa | 0 mm | - | - | - |
| 1788089392 | 16.67° C | 71% | 868.2 hPa | 0 mm | - | - | - |
| 1788089092 | 16.67° C | 71% | 868.1 hPa | 0 mm | - | - | - |
| 1788088792 | 16.67° C | 71% | 868.5 hPa | 0 mm | - | - | - |
| 1788088493 | 16.67° C | 70% | 868.4 hPa | 0 mm | - | - | - |
| 1788088192 | 16.67° C | 69% | 868.4 hPa | 0 mm | - | - | - |
* Rain latest hour (hover to see other rain measurements)
** Current wind speed in m/s (hover to see current wind gust speed)